Time,TemperatureF,DewpointF,PressureIn,WindDirection,WindDirectionDegrees,WindSpeedMPH,WindSpeedGustMPH,Humidity,HourlyPrecipIn,Conditions,Clouds,dailyrainin,SoftwareType,DateUTC
2013-08-19 00:12:00,63.0,53.0,30.07,SW,225,0.0,0.0,71,0.00,,,0.00,,2013-08-19 04:12:00,
2013-08-19 00:23:00,62.0,53.0,30.07,SW,225,0.0,0.0,72,0.00,,,0.00,,2013-08-19 04:23:00,
2013-08-19 00:53:00,62.0,54.0,30.07,SW,225,0.0,0.0,74,0.00,,,0.00,,2013-08-19 04:53:00,
2013-08-19 01:22:00,61.0,53.0,30.07,SW,225,0.0,0.0,76,0.00,,,0.00,,2013-08-19 05:22:00,
2013-08-19 01:52:00,61.0,54.0,30.07,SW,225,0.0,0.0,78,0.00,,,0.00,,2013-08-19 05:52:00,
2013-08-19 02:21:00,61.0,54.0,30.08,NNW,338,0.0,0.0,79,0.00,,,0.00,,2013-08-19 06:21:00,
2013-08-19 02:52:00,60.0,53.0,30.07,NNW,338,0.0,0.0,79,0.00,,,0.00,,2013-08-19 06:52:00,
2013-08-19 03:21:00,59.0,53.0,30.07,NNW,338,0.0,0.0,80,0.00,,,0.00,,2013-08-19 07:21:00,
2013-08-19 03:52:00,58.0,52.0,30.07,NNW,338,0.0,0.0,80,0.00,,,0.00,,2013-08-19 07:52:00,
2013-08-19 04:21:00,57.0,51.0,30.06,NNW,338,0.0,0.0,81,0.00,,,0.00,,2013-08-19 08:21:00,
2013-08-19 04:52:00,57.0,52.0,30.06,NNW,338,0.0,0.0,82,0.00,,,0.00,,2013-08-19 08:52:00,
2013-08-19 05:22:00,56.0,51.0,30.07,NNW,338,0.0,0.0,82,0.00,,,0.00,,2013-08-19 09:22:00,
2013-08-19 05:53:00,56.0,51.0,30.07,NNW,338,0.0,0.0,83,0.00,,,0.00,,2013-08-19 09:53:00,
2013-08-19 06:12:00,56.0,51.0,30.07,NNW,338,0.0,0.0,83,0.00,,,0.00,,2013-08-19 10:12:00,
2013-08-19 06:23:00,56.0,51.0,30.07,NNW,338,0.0,0.0,83,0.00,,,0.00,,2013-08-19 10:23:00,
2013-08-19 06:52:00,56.0,52.0,30.07,NNW,338,0.0,0.0,85,0.00,,,0.00,,2013-08-19 10:52:00,
2013-08-19 07:22:00,55.0,51.0,30.07,NNW,338,0.0,0.0,85,0.00,,,0.00,,2013-08-19 11:22:00,
2013-08-19 07:52:00,55.0,51.0,30.09,NNW,338,0.0,0.0,85,0.00,,,0.00,,2013-08-19 11:52:00,
2013-08-19 08:21:00,57.0,53.0,30.09,NNW,338,0.0,0.0,86,0.00,,,0.00,,2013-08-19 12:21:00,
2013-08-19 08:52:00,61.0,57.0,30.08,WNW,293,0.0,0.0,86,0.00,,,0.00,,2013-08-19 12:52:00,
2013-08-19 09:22:00,66.0,60.0,30.08,WNW,293,0.0,0.0,81,0.00,,,0.00,,2013-08-19 13:22:00,
2013-08-19 10:21:00,70.0,61.0,30.07,WSW,248,0.0,0.0,72,0.00,,,0.00,,2013-08-19 14:21:00,
2013-08-19 10:52:00,70.0,60.0,30.07,West,270,0.0,0.0,70,0.00,,,0.00,,2013-08-19 14:52:00,
2013-08-19 11:22:00,73.0,62.0,30.06,SSW,203,0.0,0.0,68,0.00,,,0.00,,2013-08-19 15:22:00,
2013-08-19 11:54:00,77.0,64.0,30.07,NW,315,0.0,0.0,64,0.00,,,0.00,,2013-08-19 15:54:00,
2013-08-19 12:23:00,81.0,65.0,30.07,NW,315,0.0,2.0,58,0.00,,,0.00,,2013-08-19 16:23:00,
2013-08-19 13:30:00,84.0,-99.9,30.06,NNW,338,0.0,1.0,50,0.00,,,0.00,,2013-08-19 17:30:00,
2013-08-19 14:28:00,86.0,62.0,30.04,SW,225,0.0,0.0,45,0.00,,,0.00,,2013-08-19 18:28:00,
2013-08-19 14:50:00,-999.0,-99.9,30.03,WNW,293,0.0,0.0,45,0.00,,,0.00,,2013-08-19 18:50:00,
2013-08-19 15:00:00,-999.0,-99.9,30.03,WNW,293,0.0,0.0,45,0.00,,,0.00,,2013-08-19 19:00:00,
2013-08-19 15:30:00,-999.0,-99.9,30.02,West,270,0.0,0.0,44,0.00,,,0.00,,2013-08-19 19:30:00,
2013-08-19 15:36:00,88.0,63.0,30.01,West,270,0.0,0.0,44,0.00,,,0.00,,2013-08-19 19:36:00,
2013-08-19 15:59:00,88.0,63.0,30.02,WSW,248,0.0,0.0,43,0.00,,,0.00,,2013-08-19 19:59:00,
2013-08-19 16:20:00,88.0,63.0,30.01,West,270,0.0,0.0,44,0.00,,,0.00,,2013-08-19 20:20:00,
2013-08-19 16:30:00,88.0,-99.9,30.01,West,270,0.0,0.0,44,0.00,,,0.00,,2013-08-19 20:30:00,
2013-08-19 20:53:00,77.0,59.0,29.99,SSW,203,0.0,0.0,53,0.00,,,0.00,,2013-08-20 00:53:00,
2013-08-19 21:22:00,75.0,58.0,29.99,SW,225,0.0,0.0,55,0.00,,,0.00,,2013-08-20 01:22:00,
2013-08-19 21:52:00,73.0,57.0,30.01,SW,225,0.0,0.0,58,0.00,,,0.00,,2013-08-20 01:52:00,
2013-08-19 22:21:00,72.0,58.0,30.01,WSW,248,0.0,0.0,61,0.00,,,0.00,,2013-08-20 02:21:00,
2013-08-19 22:52:00,71.0,57.0,30.01,WSW,248,0.0,0.0,62,0.00,,,0.00,,2013-08-20 02:52:00,
2013-08-19 23:22:00,70.0,57.0,30.01,WSW,248,0.0,0.0,64,0.00,,,0.00,,2013-08-20 03:22:00,
2013-08-19 23:54:00,69.0,57.0,30.01,WSW,248,0.0,0.0,66,0.00,,,0.00,,2013-08-20 03:54:00,